TimeCDT,TemperatureF,Dew PointF,Humidity,Sea Level PressureIn,VisibilityMPH,Wind Direction,Wind SpeedMPH,Gust SpeedMPH,PrecipitationIn,Events,Conditions,WindDirDegrees,DateUTC
12:58 AM,70.9,70.9,100,29.84,10.0,South,11.5,-,N/A,,Clear,190,2013-10-04 05:58:00
1:58 AM,70.2,70.2,100,29.85,10.0,SSW,11.5,-,N/A,,Clear,200,2013-10-04 06:58:00
2:58 AM,69.6,69.6,100,29.84,10.0,South,9.2,-,N/A,,Clear,190,2013-10-04 07:58:00
3:58 AM,68.7,68.7,100,29.84,10.0,South,8.1,-,N/A,,Clear,180,2013-10-04 08:58:00
4:58 AM,68.4,68.4,100,29.85,10.0,SSE,5.8,-,N/A,,Clear,160,2013-10-04 09:58:00
5:58 AM,67.1,67.1,100,29.86,10.0,SSE,6.9,-,N/A,,Clear,150,2013-10-04 10:58:00
6:58 AM,66.9,66.9,100,29.86,10.0,SE,6.9,-,N/A,,Partly Cloudy,140,2013-10-04 11:58:00
7:58 AM,67.5,67.5,100,29.87,10.0,SE,8.1,-,N/A,,Partly Cloudy,140,2013-10-04 12:58:00
8:58 AM,70.5,70.5,100,29.87,10.0,South,11.5,-,N/A,,Scattered Clouds,170,2013-10-04 13:58:00
9:58 AM,76.6,66.2,70,29.87,10.0,South,16.1,-,N/A,,Scattered Clouds,190,2013-10-04 14:58:00
10:58 AM,79.5,66.2,64,29.86,10.0,South,17.3,27.6,N/A,,Mostly Cloudy,190,2013-10-04 15:58:00
11:58 AM,82.8,73.2,73,29.86,10.0,South,19.6,-,N/A,,Mostly Cloudy,180,2013-10-04 16:58:00
12:58 PM,84.6,66.2,54,29.85,10.0,South,19.6,26.5,N/A,,Mostly Cloudy,190,2013-10-04 17:58:00
1:58 PM,85.8,66.2,52,29.82,10.0,South,18.4,27.6,N/A,,Mostly Cloudy,190,2013-10-04 18:58:00
2:58 PM,86.0,68.7,56,29.81,10.0,South,20.7,26.5,N/A,,Mostly Cloudy,190,2013-10-04 19:58:00
3:58 PM,85.8,67.8,55,29.80,10.0,South,15.0,23.0,N/A,,Scattered Clouds,170,2013-10-04 20:58:00
4:58 PM,84.0,67.1,57,29.80,10.0,South,16.1,-,N/A,,Mostly Cloudy,190,2013-10-04 21:58:00
5:58 PM,83.3,68.4,61,29.80,10.0,South,12.7,19.6,N/A,,Mostly Cloudy,170,2013-10-04 22:58:00
6:58 PM,80.6,67.8,65,29.82,10.0,South,10.4,-,N/A,,Mostly Cloudy,170,2013-10-04 23:58:00
7:58 PM,77.9,67.6,71,29.83,10.0,SSE,8.1,-,N/A,,Mostly Cloudy,150,2013-10-05 00:58:00
8:58 PM,75.6,67.6,76,29.85,10.0,SSE,11.5,-,N/A,,Mostly Cloudy,160,2013-10-05 01:58:00
9:58 PM,74.5,68.0,80,29.85,10.0,South,9.2,-,N/A,,Mostly Cloudy,170,2013-10-05 02:58:00
10:58 PM,70.2,67.1,90,29.88,10.0,South,6.9,-,N/A,,Mostly Cloudy,180,2013-10-05 03:58:00
11:58 PM,71.2,67.6,88,29.89,10.0,South,8.1,-,N/A,,Mostly Cloudy,180,2013-10-05 04:58:00